Weather History for KVOK - February, 2013

Change the Weather History Date:

Thursday, February 14, 2013

  Actual Average Record
Temperature  
Mean Temperature 28 °F -  
Max Temperature 34 °F 30 °F 51 °F (2002)
Min Temperature 18 °F 18 °F -12 °F (2015)
Degree Days  
Heating Degree Days 38    
Moisture  
Dew Point 27 °F    
Average Humidity 85    
Maximum Humidity 100    
Minimum Humidity 60    
Precipitation  
Precipitation 0.08 in - - ()
Snow  
Snow 0.00 in - - ()
Snow Depth 7.00 in    
Sea Level Pressure  
Sea Level Pressure 29.70 in    
Wind  
Wind Speed 10 mph (NW)    
Max Wind Speed 21 mph    
Max Gust Speed 28 mph    
Visibility 7 miles    
Events Rain , Snow    
Averages and records for this station are not official NWS values.
T = Trace of Precipitation, MM = Missing Value Source: NWS Daily Summary

Daily Weather History Graph

Daily Weather History Graph

Search for Another Location

Airport or City:

Trip Planner

Search our weather history database for the weather conditions in past years. The results will help you decide how hot, cold, wet, or windy it might be!

Date:

Astronomy

Feb. 14, 2013 Rise Set
Actual Time 7:01 AM CST 5:29 PM CST
Civil Twilight 6:31 AM CST 5:59 PM CST
Nautical Twilight 5:57 AM CST 6:33 PM CST
Astronomical Twilight 5:24 AM CST 7:06 PM CST
Moon 8:51 AM CST (2/14) 10:45 PM CST (2/14)
Length of Visible Light 11h 28m
Length of Day
10h 28m
Waxing Crescent, 22% of the Moon is Illuminated
Feb 14
Waxing Crescent
Feb 17
First Quarter
Feb 25
Full
Mar 4
Last Quarter
Mar 11
New

Hourly Weather History & Observations

Time (CST) Temp. Windchill Dew Point Humidity Pressure Visibility Wind Dir Wind Speed Gust Speed Precip Events Conditions
12:01 AM 32.0 °F 25.6 °F 32.0 °F 100% 29.61 in 2.5 mi SE 6.9 mph - N/A Snow Light Snow
12:02 AM 32.0 °F 24.8 °F 32.0 °F 100% 29.61 in 3.0 mi SE 8.1 mph - N/A Snow Light Snow
12:04 AM 32.0 °F 24.8 °F 32.0 °F 100% 29.61 in 2.5 mi SE 8.1 mph - N/A Snow Light Snow
12:11 AM 32.0 °F 24.8 °F 32.0 °F 100% 29.61 in 2.0 mi SE 8.1 mph - N/A Snow Light Snow
12:21 AM 32.0 °F 24.2 °F 32.0 °F 100% 29.60 in 2.0 mi SE 9.2 mph - N/A Snow Light Snow
12:23 AM 32.0 °F 24.8 °F 32.0 °F 100% 29.60 in 2.5 mi SE 8.1 mph - N/A Snow Light Snow
12:26 AM 32.0 °F 24.8 °F 32.0 °F 100% 29.60 in 3.0 mi SE 8.1 mph - N/A Snow Light Snow
12:27 AM 32.0 °F 24.8 °F 32.0 °F 100% 29.60 in 3.0 mi SE 8.1 mph - N/A Snow Light Snow
12:34 AM 32.0 °F 24.8 °F 32.0 °F 100% 29.60 in 2.5 mi SE 8.1 mph - N/A Snow Light Snow
12:38 AM 32.0 °F 24.8 °F 32.0 °F 100% 29.60 in 2.0 mi SSE 8.1 mph - N/A Snow Light Snow
12:40 AM 32.0 °F 24.8 °F 32.0 °F 100% 29.60 in 2.0 mi SE 8.1 mph - N/A Snow Light Snow
12:51 AM 32.0 °F 23.6 °F 32.0 °F 100% 29.60 in 2.5 mi SE 10.4 mph - N/A Snow Light Snow
12:55 AM 32.7 °F 25.0 °F 32.0 °F 97% 29.60 in 3.0 mi SSE 9.2 mph - 0.00 in Snow Light Snow
1:08 AM 32.0 °F 24.8 °F 32.0 °F 100% 29.59 in 6.0 mi SSE 8.1 mph - N/A   Overcast
1:48 AM 33.8 °F - 32.0 °F 93% 29.58 in 9.0 mi Calm Calm - N/A   Overcast
1:55 AM 33.4 °F 28.1 °F 32.5 °F 96% 29.58 in 10.0 mi Variable 5.8 mph - 0.00 in   Overcast
2:03 AM 33.8 °F 30.8 °F 32.0 °F 93% 29.58 in 10.0 mi Variable 3.5 mph - N/A   Overcast
2:55 AM 33.8 °F - 32.2 °F 94% 29.56 in 10.0 mi Calm Calm - 0.03 in   Overcast
3:55 AM 33.3 °F - 32.2 °F 96% 29.55 in 7.0 mi Calm Calm - 0.03 in   Overcast
4:55 AM 33.1 °F - 32.4 °F 97% 29.56 in 7.0 mi Calm Calm - 0.02 in   Overcast
5:07 AM 33.8 °F - 32.0 °F 93% 29.56 in 9.0 mi Calm Calm - N/A   Overcast
5:50 AM 33.8 °F 26.4 °F 32.0 °F 93% 29.57 in 10.0 mi WNW 9.2 mph - N/A   Overcast
5:55 AM 34.3 °F 27.7 °F 32.9 °F 94% 29.57 in 10.0 mi WNW 8.1 mph - N/A   Overcast
6:02 AM 33.8 °F 27.0 °F 32.0 °F 93% 29.57 in 10.0 mi WNW 8.1 mph - N/A   Overcast
6:11 AM 33.8 °F 26.4 °F 32.0 °F 93% 29.57 in 10.0 mi WNW 9.2 mph - N/A   Overcast
6:19 AM 33.8 °F 27.0 °F 32.0 °F 93% 29.58 in 10.0 mi WNW 8.1 mph - N/A Rain Light Freezing Rain
6:20 AM 33.8 °F 27.0 °F 32.0 °F 93% 29.58 in 10.0 mi WNW 8.1 mph - N/A   Overcast
6:55 AM 33.8 °F 24.8 °F 32.0 °F 93% 29.60 in 2.2 mi NW 12.7 mph - N/A Rain , Snow Light Rain
7:39 AM 32.0 °F 20.8 °F 30.2 °F 93% 29.62 in 5.0 mi NNW 17.3 mph 24.2 mph N/A Snow Light Snow
8:03 AM 32.0 °F 20.8 °F 28.4 °F 87% 29.64 in 5.0 mi NNW 17.3 mph 25.3 mph N/A Snow Light Snow
8:17 AM 32.0 °F 19.8 °F 26.6 °F 80% 29.65 in 5.0 mi NNW 20.7 mph 27.6 mph N/A Snow Light Snow
8:21 AM 32.0 °F 19.8 °F 26.6 °F 80% 29.65 in 1.5 mi NNW 20.7 mph 27.6 mph N/A Snow Snow
8:55 AM 30.2 °F 19.3 °F 26.6 °F 86% 29.71 in 6.0 mi NNW 15.0 mph 26.5 mph N/A Snow Light Snow
9:16 AM 32.0 °F 22.1 °F 26.6 °F 80% 29.68 in 10.0 mi NNW 13.8 mph 24.2 mph N/A   Overcast
9:49 AM 32.0 °F 19.8 °F 24.8 °F 75% 29.70 in 10.0 mi NW 20.7 mph 27.6 mph N/A Snow Light Snow
9:55 AM 30.2 °F 18.5 °F 24.8 °F 80% 29.75 in 10.0 mi NNW 17.3 mph 26.5 mph N/A Snow Light Snow
10:11 AM 32.0 °F 20.8 °F 24.8 °F 75% 29.71 in 10.0 mi NW 17.3 mph 23.0 mph N/A   Overcast
10:55 AM 32.0 °F 20.1 °F 23.0 °F 69% 29.77 in 10.0 mi NNW 19.6 mph 26.5 mph N/A   Mostly Cloudy
11:55 AM 32.0 °F 20.1 °F 21.2 °F 64% 29.78 in 10.0 mi NW 19.6 mph 25.3 mph N/A   Mostly Cloudy
12:14 PM 32.0 °F 20.1 °F 23.0 °F 69% 29.75 in 10.0 mi NW 19.6 mph 25.3 mph N/A Snow Light Snow
12:41 PM 32.0 °F 22.1 °F 24.8 °F 75% 29.80 in 10.0 mi NW 13.8 mph - N/A   Overcast
12:55 PM 32.0 °F 21.2 °F 24.8 °F 75% 29.81 in 10.0 mi NW 16.1 mph - N/A   Overcast
1:55 PM 32.0 °F 21.2 °F 23.0 °F 69% 29.82 in 10.0 mi WNW 16.1 mph - N/A   Overcast
2:55 PM 32.0 °F 23.6 °F 23.0 °F 69% 29.85 in 10.0 mi WNW 10.4 mph - N/A   Overcast
3:05 PM 32.0 °F 22.5 °F 23.0 °F 69% 29.85 in 10.0 mi WNW 12.7 mph - N/A   Overcast
3:13 PM 32.0 °F 22.1 °F 23.0 °F 69% 29.86 in 10.0 mi NW 13.8 mph - N/A   Overcast
3:55 PM 32.0 °F 21.6 °F 19.4 °F 60% 29.88 in 10.0 mi WNW 15.0 mph - N/A   Overcast
4:55 PM 32.0 °F 23.0 °F 19.4 °F 60% 29.91 in 10.0 mi WNW 11.5 mph - N/A   Mostly Cloudy
5:55 PM 28.4 °F 21.2 °F 19.4 °F 69% 29.93 in 10.0 mi WNW 6.9 mph - N/A   Mostly Cloudy
6:55 PM 30.2 °F 21.9 °F 23.0 °F 75% 29.95 in 10.0 mi NW 9.2 mph - N/A   Overcast
7:55 PM 28.4 °F 17.5 °F 19.4 °F 69% 29.98 in 10.0 mi NW 13.8 mph - N/A   Overcast
8:55 PM 26.6 °F 15.7 °F 19.4 °F 74% 30.01 in 10.0 mi NNW 12.7 mph - N/A   Mostly Cloudy
9:55 PM 23.0 °F 10.1 °F 14.0 °F 68% 30.04 in 10.0 mi NNW 15.0 mph 25.3 mph N/A   Mostly Cloudy
10:55 PM 21.2 °F 6.8 °F 12.2 °F 68% 30.07 in 10.0 mi NW 17.3 mph 24.2 mph N/A   Mostly Cloudy
11:55 PM 18.3 °F 5.9 °F 7.9 °F 64% 30.10 in 10.0 mi NNW 11.5 mph - 0.00 in   Clear